JBU1817 KJFK-TTPP

Flight info

Callsign JBU1817
Flight time 4h 20m
Altitude 30000
Route SHIPP Y489 BEHHR/M078F300 Y489 RESQU/M078F310 DCT SKPPR L455 DUPOX/M078F330 L455 KINCH/N0463F330 DCT ANADA UG449 PERGA DCT ITRAK DCT NAPKO DCT LEXOR DCT TALUS
Aircraft A321/M-SDE3FGHIRWY/LB1

Departure

Time 2026-05-07 22:47
Airport John F. Kennedy International Airport (KJFK)

Arrival

Time 2026-05-08 03:07
Airport Piarco International Airport (TTPP)
Time Latitude Longitude Altitude Speed Heading
2026-05-07 22:34 40.64534 -73.77340 22 ft 0 kts 357°
2026-05-07 22:36 40.64530 -73.77339 23 ft 2 kts 357°
2026-05-07 22:37 40.64512 -73.77339 22 ft 3 kts
2026-05-07 22:37 40.64494 -73.77346 22 ft 3 kts 44°
2026-05-07 22:37 40.64482 -73.77362 22 ft 3 kts 17°
2026-05-07 22:37 40.64476 -73.77368 22 ft 3 kts 295°
2026-05-07 22:38 40.64473 -73.77351 24 ft 1 kts 268°
2026-05-07 22:38 40.64473 -73.77332 24 ft 2 kts 268°
2026-05-07 22:38 40.64473 -73.77325 22 ft 0 kts 268°
2026-05-07 22:41 40.64473 -73.77336 25 ft 3 kts 268°
2026-05-07 22:41 40.64472 -73.77382 22 ft 6 kts 268°
2026-05-07 22:41 40.64461 -73.77448 22 ft 9 kts 239°
2026-05-07 22:41 40.64405 -73.77496 24 ft 11 kts 208°
2026-05-07 22:42 40.64334 -73.77553 23 ft 13 kts 211°
2026-05-07 22:42 40.64244 -73.77596 22 ft 15 kts 171°
2026-05-07 22:42 40.64147 -73.77526 22 ft 17 kts 147°
2026-05-07 22:42 40.64057 -73.77410 22 ft 20 kts 128°
2026-05-07 22:43 40.63972 -73.77257 21 ft 22 kts 128°
2026-05-07 22:43 40.63879 -73.77101 25 ft 20 kts 128°
2026-05-07 22:43 40.63795 -73.76956 29 ft 19 kts 126°
2026-05-07 22:43 40.63687 -73.76917 27 ft 16 kts 179°
2026-05-07 22:44 40.63577 -73.76918 25 ft 16 kts 182°
2026-05-07 22:44 40.63464 -73.76925 23 ft 17 kts 182°
2026-05-07 22:44 40.63342 -73.76940 21 ft 18 kts 186°
2026-05-07 22:44 40.63223 -73.76949 22 ft 16 kts 180°
2026-05-07 22:45 40.63113 -73.76974 21 ft 16 kts 198°
2026-05-07 22:45 40.63011 -73.77037 21 ft 16 kts 210°
2026-05-07 22:45 40.62923 -73.77105 24 ft 14 kts 210°
2026-05-07 22:45 40.62843 -73.77166 24 ft 13 kts 210°
2026-05-07 22:46 40.62816 -73.77245 24 ft 7 kts 317°
2026-05-07 22:46 40.62851 -73.77298 26 ft 13 kts 301°
2026-05-07 22:46 40.62993 -73.77608 29 ft 71 kts 301°
2026-05-07 22:46 40.63353 -73.78396 22 ft 128 kts 301°
2026-05-07 22:47 40.63892 -73.79577 30 ft 172 kts 303°
2026-05-07 22:47 40.64506 -73.81027 448 ft 184 kts 300°
2026-05-07 22:47 40.65007 -73.82532 1236 ft 177 kts 287°
2026-05-07 22:47 40.65027 -73.84129 2025 ft 177 kts 256°
2026-05-07 22:48 40.64361 -73.85467 2727 ft 183 kts 224°
2026-05-07 22:48 40.63220 -73.86365 3115 ft 202 kts 211°
2026-05-07 22:48 40.61924 -73.87294 3438 ft 219 kts 212°
2026-05-07 22:48 40.60518 -73.88162 3984 ft 228 kts 197°
2026-05-07 22:49 40.58912 -73.88318 4639 ft 241 kts 174°
2026-05-07 22:49 40.57239 -73.87620 5006 ft 266 kts 157°
2026-05-07 22:49 40.55501 -73.86605 5338 ft 279 kts 156°
2026-05-07 22:49 40.53656 -73.85746 5851 ft 282 kts 169°
2026-05-07 22:50 40.51708 -73.85378 6412 ft 284 kts 173°
2026-05-07 22:50 40.49834 -73.84526 6928 ft 290 kts 150°
2026-05-07 22:50 40.48290 -73.82794 7430 ft 297 kts 130°
2026-05-07 22:50 40.47222 -73.80448 7899 ft 304 kts 111°
2026-05-07 22:51 40.46545 -73.77795 8355 ft 309 kts 109°
2026-05-07 22:51 40.45866 -73.75096 8807 ft 314 kts 110°
2026-05-07 22:51 40.45173 -73.72378 9233 ft 321 kts 110°
2026-05-07 22:51 40.44458 -73.69574 9695 ft 326 kts 111°
2026-05-07 22:52 40.43730 -73.66723 10013 ft 335 kts 111°
2026-05-07 22:52 40.42970 -73.63754 10126 ft 351 kts 112°
2026-05-07 22:52 40.42176 -73.60647 10257 ft 367 kts 112°
2026-05-07 22:52 40.41632 -73.58519 10337 ft 378 kts 112°
2026-05-07 22:53 40.40772 -73.55179 10461 ft 393 kts 112°
2026-05-07 22:53 40.39883 -73.51716 10591 ft 407 kts 112°
2026-05-07 22:53 40.38973 -73.48158 10925 ft 414 kts 112°
2026-05-07 22:53 40.38055 -73.44567 11374 ft 417 kts 112°
2026-05-07 22:54 40.37131 -73.40951 11846 ft 419 kts 113°
2026-05-07 22:54 40.36194 -73.37307 12328 ft 422 kts 113°
2026-05-07 22:54 40.35246 -73.33652 12827 ft 425 kts 114°
2026-05-07 22:54 40.34291 -73.29977 13279 ft 427 kts 114°
2026-05-07 22:55 40.33310 -73.26306 13816 ft 424 kts 118°
2026-05-07 22:55 40.32013 -73.22860 14253 ft 419 kts 128°
2026-05-07 22:55 40.30428 -73.19653 14661 ft 420 kts 130°
2026-05-07 22:55 40.28814 -73.16438 15074 ft 423 kts 130°
2026-05-07 22:56 40.27194 -73.13204 15485 ft 426 kts 130°
2026-05-07 22:56 40.25563 -73.09936 15892 ft 430 kts 130°
2026-05-07 22:56 40.23924 -73.06649 16301 ft 433 kts 130°
2026-05-07 22:56 40.22273 -73.03337 16708 ft 436 kts 131°
2026-05-07 22:57 40.20612 -73.00003 17114 ft 439 kts 131°
2026-05-07 22:57 40.18933 -72.96652 17507 ft 442 kts 131°
2026-05-07 22:57 40.17238 -72.93280 17852 ft 446 kts 132°
2026-05-07 22:57 40.15525 -72.89881 18192 ft 450 kts 132°
2026-05-07 22:58 40.13802 -72.86458 18518 ft 452 kts 133°
2026-05-07 22:58 40.12073 -72.83014 18847 ft 454 kts 133°
2026-05-07 22:58 40.10359 -72.79602 19179 ft 456 kts 133°
2026-05-07 22:58 40.08659 -72.76087 19507 ft 460 kts 131°
2026-05-07 22:59 40.07006 -72.72489 19844 ft 464 kts 130°
2026-05-07 22:59 40.05383 -72.68842 20177 ft 466 kts 130°
2026-05-07 22:59 40.03765 -72.65158 20492 ft 468 kts 130°
2026-05-07 22:59 40.02136 -72.61462 20786 ft 469 kts 130°
2026-05-07 23:00 40.00498 -72.57777 21067 ft 470 kts 131°
2026-05-07 23:00 39.98838 -72.54093 21390 ft 471 kts 131°
2026-05-07 23:00 39.97160 -72.50413 21693 ft 472 kts 132°
2026-05-07 23:00 39.95477 -72.46716 21997 ft 475 kts 132°
2026-05-07 23:01 39.93813 -72.42987 22300 ft 477 kts 131°
2026-05-07 23:01 39.92161 -72.39228 22583 ft 479 kts 131°
2026-05-07 23:01 39.90516 -72.35451 22867 ft 480 kts 131°
2026-05-07 23:01 39.88866 -72.31662 23138 ft 481 kts 131°
2026-05-07 23:02 39.87207 -72.27871 23385 ft 483 kts 132°
2026-05-07 23:02 39.85533 -72.24070 23588 ft 484 kts 132°
2026-05-07 23:02 39.83852 -72.20267 23817 ft 486 kts 132°
2026-05-07 23:02 39.82158 -72.16447 24037 ft 488 kts 132°
2026-05-07 23:03 39.80481 -72.12671 24246 ft 489 kts 132°
2026-05-07 23:03 39.78771 -72.08833 24449 ft 492 kts 132°
2026-05-07 23:03 39.77051 -72.04975 24664 ft 493 kts 132°
2026-05-07 23:03 39.75257 -72.01196 24857 ft 486 kts 138°
2026-05-07 23:04 39.73187 -71.97805 25041 ft 474 kts 146°
2026-05-07 23:04 39.70868 -71.94827 25223 ft 466 kts 151°
2026-05-07 23:04 39.68477 -71.91974 25353 ft 468 kts 150°
2026-05-07 23:04 39.66078 -71.89110 25518 ft 469 kts 150°
2026-05-07 23:05 39.63678 -71.86237 25736 ft 470 kts 150°
2026-05-07 23:05 39.61269 -71.83356 25938 ft 471 kts 150°
2026-05-07 23:05 39.58851 -71.80471 26135 ft 473 kts 150°
2026-05-07 23:05 39.56421 -71.77567 26332 ft 475 kts 150°
2026-05-07 23:06 39.53988 -71.74674 26527 ft 473 kts 152°
2026-05-07 23:06 39.51449 -71.72143 26709 ft 461 kts 160°
2026-05-07 23:06 39.48712 -71.70086 26901 ft 448 kts 167°
2026-05-07 23:06 39.45878 -71.68555 27126 ft 436 kts 174°
2026-05-07 23:07 39.42976 -71.67274 27368 ft 434 kts 174°
2026-05-07 23:07 39.40155 -71.66021 27645 ft 434 kts 174°
2026-05-07 23:07 39.37299 -71.64745 27919 ft 434 kts 174°
2026-05-07 23:07 39.34449 -71.63467 28203 ft 433 kts 174°
2026-05-07 23:08 39.31604 -71.62191 28483 ft 432 kts 174°
2026-05-07 23:08 39.28762 -71.60915 28758 ft 432 kts 174°
2026-05-07 23:08 39.25924 -71.59637 29030 ft 431 kts 175°
2026-05-07 23:08 39.23094 -71.58363 29298 ft 431 kts 175°
2026-05-07 23:09 39.20258 -71.57308 29571 ft 416 kts 182°
2026-05-07 23:09 39.17440 -71.56805 29806 ft 403 kts 189°
2026-05-07 23:09 39.14654 -71.56636 29878 ft 399 kts 190°
2026-05-07 23:10 39.09133 -71.56312 29881 ft 397 kts 190°
2026-05-07 23:10 39.03590 -71.55986 29877 ft 400 kts 189°
2026-05-07 23:11 38.98007 -71.55648 29840 ft 404 kts 188°
2026-05-07 23:11 38.92348 -71.55309 29878 ft 410 kts 187°
2026-05-07 23:12 38.86643 -71.54954 29870 ft 411 kts 187°
2026-05-07 23:12 38.80926 -71.54603 29874 ft 411 kts 187°
2026-05-07 23:13 38.75205 -71.54251 29849 ft 412 kts 186°
2026-05-07 23:13 38.69488 -71.53910 29877 ft 414 kts 186°
2026-05-07 23:14 38.63724 -71.53564 29885 ft 414 kts 186°
2026-05-07 23:14 38.57966 -71.53222 29886 ft 414 kts 186°
2026-05-07 23:15 38.52207 -71.52841 29838 ft 414 kts 186°
2026-05-07 23:15 38.46441 -71.52379 29831 ft 415 kts 186°
2026-05-07 23:16 38.40649 -71.51903 29842 ft 417 kts 186°
2026-05-07 23:16 38.34832 -71.51450 29874 ft 421 kts 186°
2026-05-07 23:17 38.28995 -71.50984 29837 ft 420 kts 186°
2026-05-07 23:17 38.23173 -71.50535 29838 ft 423 kts 186°
2026-05-07 23:18 38.17297 -71.50081 29861 ft 423 kts 186°
2026-05-07 23:18 38.11405 -71.49620 29888 ft 424 kts 185°
2026-05-07 23:19 38.05535 -71.49157 29937 ft 421 kts 186°
2026-05-07 23:19 38.02618 -71.48928 30167 ft 419 kts 186°
2026-05-07 23:19 37.99720 -71.48696 30407 ft 415 kts 187°
2026-05-07 23:19 37.96848 -71.48462 30646 ft 412 kts 186°
2026-05-07 23:20 37.93993 -71.48236 30815 ft 412 kts 187°
2026-05-07 23:20 37.88229 -71.47815 30867 ft 420 kts 187°
2026-05-07 23:21 37.82348 -71.47387 30871 ft 426 kts 187°
2026-05-07 23:21 37.76381 -71.46924 30855 ft 431 kts 186°
2026-05-07 23:22 37.70404 -71.46442 30858 ft 429 kts 187°
2026-05-07 23:22 37.64426 -71.45988 30868 ft 432 kts 187°
2026-05-07 23:23 37.58440 -71.45536 30836 ft 431 kts 186°
2026-05-07 23:23 37.52447 -71.45059 30818 ft 432 kts 187°
2026-05-07 23:24 37.46416 -71.43687 30829 ft 456 kts 171°
2026-05-07 23:24 37.40549 -71.40331 30825 ft 465 kts 165°
2026-05-07 23:25 37.34677 -71.36825 30816 ft 470 kts 165°
2026-05-07 23:25 37.28773 -71.33345 30810 ft 472 kts 165°
2026-05-07 23:26 37.22815 -71.29822 30824 ft 474 kts 165°
2026-05-07 23:26 37.16837 -71.26292 30816 ft 475 kts 165°
2026-05-07 23:27 37.07850 -71.20997 30789 ft 476 kts 166°
2026-05-07 23:27 37.01839 -71.17482 30794 ft 478 kts 166°
2026-05-07 23:28 36.95857 -71.13977 30794 ft 478 kts 166°
2026-05-07 23:28 36.89813 -71.10433 30798 ft 480 kts 166°
2026-05-07 23:29 36.83758 -71.06884 30813 ft 481 kts 166°
2026-05-07 23:29 36.77690 -71.03347 30812 ft 481 kts 166°
2026-05-07 23:30 36.71617 -70.99816 30819 ft 482 kts 166°
2026-05-07 23:30 36.65542 -70.96287 30817 ft 481 kts 166°
2026-05-07 23:31 36.59475 -70.92766 30780 ft 482 kts 165°
2026-05-07 23:31 36.53387 -70.89242 30789 ft 483 kts 165°
2026-05-07 23:32 36.47284 -70.85722 30784 ft 485 kts 165°
2026-05-07 23:32 36.41153 -70.82186 30792 ft 486 kts 165°
2026-05-07 23:33 36.35010 -70.78628 30777 ft 488 kts 165°
2026-05-07 23:33 36.28849 -70.75071 30793 ft 490 kts 165°
2026-05-07 23:34 36.22651 -70.71516 30805 ft 491 kts 165°
2026-05-07 23:34 36.16443 -70.67956 30817 ft 491 kts 165°
2026-05-07 23:35 36.10231 -70.64403 30790 ft 492 kts 165°
2026-05-07 23:35 36.04053 -70.60877 30804 ft 492 kts 165°
2026-05-07 23:36 35.97831 -70.57319 30834 ft 493 kts 165°
2026-05-07 23:36 35.92606 -70.54346 30848 ft 493 kts 166°
2026-05-07 23:37 35.86372 -70.50820 30858 ft 493 kts 166°
2026-05-07 23:37 35.80143 -70.47283 30858 ft 493 kts 165°
2026-05-07 23:38 35.73819 -70.44312 30875 ft 476 kts 177°
2026-05-07 23:38 35.67385 -70.42593 30892 ft 473 kts 178°
2026-05-07 23:39 35.60940 -70.40901 30883 ft 475 kts 178°
2026-05-07 23:39 35.54532 -70.39190 30876 ft 473 kts 178°
2026-05-07 23:40 35.48080 -70.37473 30898 ft 477 kts 178°
2026-05-07 23:40 35.41596 -70.35773 30898 ft 477 kts 177°
2026-05-07 23:41 35.35117 -70.34042 30876 ft 475 kts 176°
2026-05-07 23:41 35.28692 -70.32329 30877 ft 470 kts 176°
2026-05-07 23:42 35.22256 -70.30671 30895 ft 474 kts 177°
2026-05-07 23:42 35.15806 -70.28982 30922 ft 475 kts 177°
2026-05-07 23:43 35.09349 -70.27263 30898 ft 475 kts 176°
2026-05-07 23:43 35.02883 -70.25552 30924 ft 475 kts 176°
2026-05-07 23:44 34.96422 -70.23860 30938 ft 475 kts 176°
2026-05-07 23:44 34.90004 -70.22195 30942 ft 474 kts 176°
2026-05-07 23:45 34.83541 -70.20521 30925 ft 474 kts 175°
2026-05-07 23:45 34.77094 -70.18828 30939 ft 473 kts 174°
2026-05-07 23:46 34.70661 -70.17144 30948 ft 473 kts 174°
2026-05-07 23:46 34.64232 -70.15472 30954 ft 472 kts 174°
2026-05-07 23:47 34.57804 -70.13812 30941 ft 472 kts 174°
2026-05-07 23:47 34.51375 -70.12152 30960 ft 472 kts 174°
2026-05-07 23:48 34.44950 -70.10491 30966 ft 470 kts 174°
2026-05-07 23:48 34.38526 -70.08837 30970 ft 473 kts 174°
2026-05-07 23:49 34.32104 -70.07170 30980 ft 472 kts 174°
2026-05-07 23:49 34.25679 -70.05515 30989 ft 471 kts 175°
2026-05-07 23:50 34.19264 -70.03864 30977 ft 471 kts 174°
2026-05-07 23:50 34.12828 -70.02226 30971 ft 473 kts 174°
2026-05-07 23:51 34.06392 -70.00575 30961 ft 472 kts 173°
2026-05-07 23:51 34.00004 -69.98936 30979 ft 472 kts 174°
2026-05-07 23:52 33.93579 -69.97296 30992 ft 471 kts 174°
2026-05-07 23:52 33.87151 -69.95644 30984 ft 474 kts 174°
2026-05-07 23:53 33.80711 -69.93991 30975 ft 474 kts 174°
2026-05-07 23:53 33.74257 -69.92363 30999 ft 474 kts 173°
2026-05-07 23:54 33.67791 -69.90732 31005 ft 474 kts 173°
2026-05-07 23:54 33.61381 -69.89108 31013 ft 474 kts 173°
2026-05-07 23:55 33.54932 -69.87477 30992 ft 473 kts 174°
2026-05-07 23:55 33.48473 -69.85850 30998 ft 474 kts 174°
2026-05-07 23:56 33.42005 -69.84226 31013 ft 475 kts 174°
2026-05-07 23:56 33.35531 -69.82592 31024 ft 474 kts 174°
2026-05-07 23:57 33.29075 -69.80968 31006 ft 474 kts 174°
2026-05-07 23:57 33.22658 -69.79352 31012 ft 474 kts 174°
2026-05-07 23:58 33.16197 -69.77725 31021 ft 474 kts 174°
2026-05-07 23:58 33.09740 -69.76100 31022 ft 474 kts 174°
2026-05-07 23:59 33.03285 -69.74493 31015 ft 474 kts 174°
2026-05-07 23:59 32.96832 -69.72896 31012 ft 474 kts 174°
2026-05-08 00:00 32.90370 -69.71293 31017 ft 475 kts 174°
2026-05-08 00:00 32.83904 -69.69672 31025 ft 475 kts 174°
2026-05-08 00:01 32.77430 -69.68053 31010 ft 475 kts 173°
2026-05-08 00:01 32.70977 -69.66449 31009 ft 477 kts 173°
2026-05-08 00:02 32.64472 -69.64846 31012 ft 478 kts 173°
2026-05-08 00:02 32.57959 -69.63238 31026 ft 478 kts 173°
2026-05-08 00:03 32.51436 -69.61622 31029 ft 479 kts 173°
2026-05-08 00:03 32.44912 -69.60013 31021 ft 479 kts 173°
2026-05-08 00:04 32.38386 -69.58409 31024 ft 479 kts 173°
2026-05-08 00:04 32.31842 -69.56793 31036 ft 479 kts 173°
2026-05-08 00:05 32.25311 -69.55187 31039 ft 479 kts 173°
2026-05-08 00:05 32.18780 -69.53594 31030 ft 479 kts 173°
2026-05-08 00:06 32.12243 -69.52006 31045 ft 479 kts 173°
2026-05-08 00:06 32.05753 -69.50416 31057 ft 479 kts 173°
2026-05-08 00:07 31.99217 -69.48817 31057 ft 479 kts 173°
2026-05-08 00:07 31.92691 -69.47224 31052 ft 479 kts 173°
2026-05-08 00:08 31.86157 -69.45646 31057 ft 479 kts 173°
2026-05-08 00:08 31.79612 -69.44068 31060 ft 480 kts 173°
2026-05-08 00:09 31.73105 -69.42481 31064 ft 480 kts 173°
2026-05-08 00:09 31.66574 -69.40881 31070 ft 479 kts 173°
2026-05-08 00:10 31.60037 -69.39288 31073 ft 479 kts 173°
2026-05-08 00:10 31.53512 -69.37714 31077 ft 479 kts 173°
2026-05-08 00:11 31.46982 -69.36147 31077 ft 479 kts 173°
2026-05-08 00:11 31.40447 -69.34572 31062 ft 479 kts 173°
2026-05-08 00:12 31.33920 -69.32998 31063 ft 479 kts 173°
2026-05-08 00:12 31.27391 -69.31437 31067 ft 479 kts 173°
2026-05-08 00:13 31.20858 -69.29872 31070 ft 479 kts 173°
2026-05-08 00:13 31.14332 -69.28298 31052 ft 478 kts 173°
2026-05-08 00:14 31.07854 -69.26747 31060 ft 479 kts 173°
2026-05-08 00:14 31.01317 -69.25193 31072 ft 479 kts 173°
2026-05-08 00:15 30.94783 -69.23637 31077 ft 480 kts 173°
2026-05-08 00:15 30.88239 -69.22074 31074 ft 480 kts 173°
2026-05-08 00:16 30.81699 -69.20515 31085 ft 480 kts 173°
2026-05-08 00:16 30.75154 -69.18964 31088 ft 480 kts 173°
2026-05-08 00:17 30.68605 -69.17405 31093 ft 480 kts 173°
2026-05-08 00:17 30.62051 -69.15852 31086 ft 480 kts 173°
2026-05-08 00:18 30.55498 -69.14302 31089 ft 480 kts 173°
2026-05-08 00:18 30.48949 -69.12757 31092 ft 480 kts 173°
2026-05-08 00:19 30.42398 -69.11210 31102 ft 480 kts 172°
2026-05-08 00:19 30.35887 -69.09682 31105 ft 481 kts 172°
2026-05-08 00:20 30.29322 -69.08129 31101 ft 480 kts 172°
2026-05-08 00:20 30.22766 -69.06585 31104 ft 480 kts 172°
2026-05-08 00:21 30.16217 -69.05056 31106 ft 480 kts 172°
2026-05-08 00:21 30.09657 -69.03514 31111 ft 480 kts 172°
2026-05-08 00:22 30.03106 -69.01973 31105 ft 480 kts 172°
2026-05-08 00:22 29.96587 -69.00460 31113 ft 480 kts 172°
2026-05-08 00:23 29.90039 -68.98944 31122 ft 480 kts 172°
2026-05-08 00:23 29.83489 -68.97409 31125 ft 481 kts 172°
2026-05-08 00:24 29.77999 -68.96121 31108 ft 481 kts 172°
2026-05-08 00:24 29.71442 -68.94591 31112 ft 481 kts 172°
2026-05-08 00:25 29.64889 -68.93074 31118 ft 481 kts 172°
2026-05-08 00:25 29.58329 -68.91567 31121 ft 481 kts 172°
2026-05-08 00:26 29.51767 -68.90047 31129 ft 481 kts 172°
2026-05-08 00:26 29.45205 -68.88523 31124 ft 481 kts 172°
2026-05-08 00:27 29.38690 -68.87014 31125 ft 481 kts 172°
2026-05-08 00:27 29.32130 -68.85501 31131 ft 481 kts 171°
2026-05-08 00:28 29.25569 -68.83990 31128 ft 481 kts 171°
2026-05-08 00:28 29.19009 -68.82475 31120 ft 480 kts 171°
2026-05-08 00:29 29.12458 -68.80969 31126 ft 480 kts 171°
2026-05-08 00:29 29.05906 -68.79470 31127 ft 480 kts 171°
2026-05-08 00:30 28.99346 -68.77970 31125 ft 480 kts 171°
2026-05-08 00:30 28.92788 -68.76466 31140 ft 481 kts 171°
2026-05-08 00:31 28.86228 -68.74966 31131 ft 481 kts 171°
2026-05-08 00:31 28.79672 -68.73468 31140 ft 481 kts 172°
2026-05-08 00:32 28.73110 -68.71982 31132 ft 480 kts 171°
2026-05-08 00:32 28.66549 -68.70493 31130 ft 480 kts 171°
2026-05-08 00:33 28.60042 -68.69008 31120 ft 480 kts 171°
2026-05-08 00:33 28.53481 -68.67517 31128 ft 481 kts 171°
2026-05-08 00:34 28.46915 -68.66034 31131 ft 481 kts 171°
2026-05-08 00:34 28.40348 -68.64546 31134 ft 481 kts 171°
2026-05-08 00:35 28.33787 -68.63061 31139 ft 480 kts 171°
2026-05-08 00:35 28.27229 -68.61572 31132 ft 480 kts 171°
2026-05-08 00:36 28.20683 -68.60093 31133 ft 479 kts 171°
2026-05-08 00:36 28.14146 -68.58626 31125 ft 479 kts 171°
2026-05-08 00:37 28.07596 -68.57156 31118 ft 479 kts 171°
2026-05-08 00:38 27.97786 -68.54945 31122 ft 479 kts 171°
2026-05-08 00:38 27.91240 -68.53467 31128 ft 479 kts 171°
2026-05-08 00:39 27.84745 -68.52014 31133 ft 479 kts 171°
2026-05-08 00:39 27.78213 -68.50559 31125 ft 478 kts 171°
2026-05-08 00:40 27.71697 -68.49107 31130 ft 477 kts 171°
2026-05-08 00:40 27.65181 -68.47642 31135 ft 477 kts 171°
2026-05-08 00:41 27.58668 -68.46186 31135 ft 477 kts 171°
2026-05-08 00:41 27.52160 -68.44736 31138 ft 477 kts 171°
2026-05-08 00:42 27.45650 -68.43288 31136 ft 476 kts 171°
2026-05-08 00:42 27.39151 -68.41841 31136 ft 476 kts 171°
2026-05-08 00:43 27.32656 -68.40400 31130 ft 475 kts 171°
2026-05-08 00:43 27.26165 -68.38966 31125 ft 475 kts 171°
2026-05-08 00:44 27.19672 -68.37528 31120 ft 475 kts 171°
2026-05-08 00:44 27.13187 -68.36097 31126 ft 475 kts 171°
2026-05-08 00:45 27.06704 -68.34671 31129 ft 475 kts 171°
2026-05-08 00:45 27.00222 -68.33240 31128 ft 474 kts 171°
2026-05-08 00:46 26.93744 -68.31803 31125 ft 475 kts 171°
2026-05-08 00:46 26.87267 -68.30373 31120 ft 474 kts 171°
2026-05-08 00:47 26.80833 -68.28962 31126 ft 474 kts 171°
2026-05-08 00:47 26.74363 -68.27550 31125 ft 474 kts 171°
2026-05-08 00:48 26.67896 -68.26130 31118 ft 473 kts 171°
2026-05-08 00:48 26.61416 -68.24707 31115 ft 473 kts 171°
2026-05-08 00:49 26.54944 -68.23297 31121 ft 474 kts 171°
2026-05-08 00:49 26.48468 -68.21879 31126 ft 474 kts 171°
2026-05-08 00:50 26.41990 -68.20457 31125 ft 474 kts 171°
2026-05-08 00:50 26.35513 -68.19043 31131 ft 474 kts 171°
2026-05-08 00:51 26.29040 -68.17639 31120 ft 474 kts 171°
2026-05-08 00:51 26.22608 -68.16240 31121 ft 474 kts 171°
2026-05-08 00:52 26.16143 -68.14828 31125 ft 473 kts 171°
2026-05-08 00:52 26.09675 -68.13425 31123 ft 473 kts 171°
2026-05-08 00:53 26.03202 -68.12025 31116 ft 473 kts 171°
2026-05-08 00:53 25.96736 -68.10623 31117 ft 473 kts 171°
2026-05-08 00:54 25.90263 -68.09217 31122 ft 474 kts 171°
2026-05-08 00:54 25.83783 -68.07822 31127 ft 474 kts 171°
2026-05-08 00:55 25.77306 -68.06427 31131 ft 474 kts 171°
2026-05-08 00:55 25.70871 -68.05036 31129 ft 474 kts 171°
2026-05-08 00:56 25.64391 -68.03636 31134 ft 474 kts 171°
2026-05-08 00:56 25.57914 -68.02239 31130 ft 474 kts 171°
2026-05-08 00:57 25.51449 -68.00851 31131 ft 473 kts 171°
2026-05-08 00:57 25.44980 -67.99474 31127 ft 473 kts 171°
2026-05-08 00:58 25.38518 -67.98088 31127 ft 473 kts 171°
2026-05-08 00:58 25.32050 -67.96701 31126 ft 473 kts 171°
2026-05-08 00:59 25.25592 -67.95308 31129 ft 473 kts 171°
2026-05-08 00:59 25.19125 -67.93928 31131 ft 473 kts 171°
2026-05-08 01:00 25.12667 -67.92558 31131 ft 473 kts 171°
2026-05-08 01:00 25.06206 -67.91175 31130 ft 473 kts 171°
2026-05-08 01:01 24.99782 -67.89801 31127 ft 473 kts 171°
2026-05-08 01:01 24.93325 -67.88428 31138 ft 473 kts 171°
2026-05-08 01:02 24.86860 -67.87054 31131 ft 473 kts 171°
2026-05-08 01:02 24.80396 -67.85688 31123 ft 472 kts 171°
2026-05-08 01:03 24.73942 -67.84315 31122 ft 473 kts 171°
2026-05-08 01:03 24.67482 -67.82938 31123 ft 473 kts 171°
2026-05-08 01:04 24.61022 -67.81573 31113 ft 472 kts 171°
2026-05-08 01:04 24.54566 -67.80210 31103 ft 473 kts 170°
2026-05-08 01:05 24.48139 -67.78849 31113 ft 473 kts 170°
2026-05-08 01:05 24.41674 -67.77488 31112 ft 473 kts 170°
2026-05-08 01:06 24.35209 -67.76125 31115 ft 473 kts 170°
2026-05-08 01:06 24.28742 -67.74764 31115 ft 472 kts 170°
2026-05-08 01:07 24.22279 -67.73407 31103 ft 473 kts 170°
2026-05-08 01:07 24.15809 -67.72054 31105 ft 474 kts 170°
2026-05-08 01:08 24.09367 -67.70700 31103 ft 474 kts 170°
2026-05-08 01:08 24.02886 -67.69333 31107 ft 474 kts 170°
2026-05-08 01:09 23.97451 -67.68192 31120 ft 475 kts 170°
2026-05-08 01:09 23.90962 -67.66835 31105 ft 475 kts 169°
2026-05-08 01:10 23.84450 -67.65470 31115 ft 476 kts 169°
2026-05-08 01:10 23.77930 -67.64108 31111 ft 477 kts 169°
2026-05-08 01:11 23.71457 -67.62756 31112 ft 477 kts 169°
2026-05-08 01:11 23.64933 -67.61398 31115 ft 477 kts 169°
2026-05-08 01:12 23.58409 -67.60037 31116 ft 477 kts 169°
2026-05-08 01:12 23.51874 -67.58689 31112 ft 479 kts 169°
2026-05-08 01:13 23.45332 -67.57334 31112 ft 478 kts 169°
2026-05-08 01:13 23.38792 -67.55972 31116 ft 479 kts 169°
2026-05-08 01:14 23.32242 -67.54615 31121 ft 479 kts 168°
2026-05-08 01:14 23.25689 -67.53250 31121 ft 479 kts 168°
2026-05-08 01:15 23.19132 -67.51884 31120 ft 480 kts 168°
2026-05-08 01:15 23.12563 -67.50531 31116 ft 480 kts 168°
2026-05-08 01:16 23.06003 -67.49180 31124 ft 480 kts 168°
2026-05-08 01:16 22.99436 -67.47823 31123 ft 480 kts 168°
2026-05-08 01:17 22.92867 -67.46470 31127 ft 481 kts 168°
2026-05-08 01:17 22.86293 -67.45110 31127 ft 480 kts 168°
2026-05-08 01:18 22.79721 -67.43763 31128 ft 481 kts 168°
2026-05-08 01:18 22.73144 -67.42420 31130 ft 481 kts 168°
2026-05-08 01:19 22.66577 -67.41065 31129 ft 480 kts 168°
2026-05-08 01:19 22.60011 -67.39713 31131 ft 480 kts 168°
2026-05-08 01:20 22.53493 -67.38375 31126 ft 480 kts 168°
2026-05-08 01:20 22.46928 -67.37031 31125 ft 480 kts 168°
2026-05-08 01:21 22.40363 -67.35685 31131 ft 480 kts 168°
2026-05-08 01:21 22.33780 -67.34343 31134 ft 481 kts 168°
2026-05-08 01:22 22.27213 -67.33009 31128 ft 479 kts 167°
2026-05-08 01:22 22.20657 -67.31668 31125 ft 479 kts 167°
2026-05-08 01:23 22.14106 -67.30330 31122 ft 479 kts 167°
2026-05-08 01:23 22.07603 -67.29003 31118 ft 479 kts 167°
2026-05-08 01:24 22.01051 -67.27672 31117 ft 479 kts 167°
2026-05-08 01:24 21.94505 -67.26339 31119 ft 479 kts 167°
2026-05-08 01:25 21.87947 -67.25013 31114 ft 479 kts 167°
2026-05-08 01:25 21.81385 -67.23686 31121 ft 479 kts 167°
2026-05-08 01:26 21.74822 -67.22358 31118 ft 479 kts 167°
2026-05-08 01:26 21.68263 -67.21030 31122 ft 480 kts 167°
2026-05-08 01:27 21.61749 -67.19475 31117 ft 477 kts 158°
2026-05-08 01:27 21.55664 -67.16660 31117 ft 476 kts 153°
2026-05-08 01:28 21.49651 -67.13772 31122 ft 476 kts 153°
2026-05-08 01:28 21.43600 -67.10857 31122 ft 477 kts 153°
2026-05-08 01:29 21.37542 -67.07946 31122 ft 477 kts 153°
2026-05-08 01:29 21.31472 -67.05040 31126 ft 477 kts 153°
2026-05-08 01:30 21.25402 -67.02129 31129 ft 477 kts 153°
2026-05-08 01:30 21.19335 -66.99221 31130 ft 478 kts 153°
2026-05-08 01:31 21.13267 -66.96317 31138 ft 478 kts 153°
2026-05-08 01:31 21.07192 -66.93415 31132 ft 478 kts 153°
2026-05-08 01:32 21.01117 -66.90512 31131 ft 478 kts 153°
2026-05-08 01:32 20.95042 -66.87614 31139 ft 478 kts 153°
2026-05-08 01:33 20.88968 -66.84720 31128 ft 477 kts 153°
2026-05-08 01:33 20.82895 -66.81830 31127 ft 477 kts 153°
2026-05-08 01:34 20.76827 -66.78940 31130 ft 477 kts 153°
2026-05-08 01:34 20.70757 -66.76051 31129 ft 477 kts 153°
2026-05-08 01:35 20.64690 -66.73165 31126 ft 477 kts 153°
2026-05-08 01:35 20.58657 -66.70309 31128 ft 477 kts 153°
2026-05-08 01:36 20.52586 -66.67437 31124 ft 477 kts 153°
2026-05-08 01:36 20.46515 -66.64557 31112 ft 477 kts 153°
2026-05-08 01:37 20.40459 -66.61682 31105 ft 476 kts 153°
2026-05-08 01:37 20.34400 -66.58815 31099 ft 477 kts 153°
2026-05-08 01:38 20.28333 -66.55954 31109 ft 477 kts 153°
2026-05-08 01:38 20.22268 -66.53087 31102 ft 477 kts 153°
2026-05-08 01:39 20.16192 -66.50223 31104 ft 478 kts 153°
2026-05-08 01:39 20.10113 -66.47358 31100 ft 478 kts 153°
2026-05-08 01:40 20.04026 -66.44490 31098 ft 479 kts 153°
2026-05-08 01:40 19.97968 -66.41637 31102 ft 479 kts 153°
2026-05-08 01:41 19.91870 -66.38766 31102 ft 479 kts 153°
2026-05-08 01:41 19.85768 -66.35898 31107 ft 479 kts 153°
2026-05-08 01:42 19.79659 -66.33036 31110 ft 480 kts 153°
2026-05-08 01:42 19.73551 -66.30174 31113 ft 480 kts 153°
2026-05-08 01:43 19.67440 -66.27312 31118 ft 480 kts 153°
2026-05-08 01:43 19.61332 -66.24449 31119 ft 480 kts 153°
2026-05-08 01:44 19.55217 -66.21588 31119 ft 480 kts 153°
2026-05-08 01:44 19.49102 -66.18731 31117 ft 480 kts 153°
2026-05-08 01:45 19.42989 -66.15876 31110 ft 480 kts 153°
2026-05-08 01:45 19.36911 -66.13040 31110 ft 480 kts 153°
2026-05-08 01:46 19.30791 -66.10186 31106 ft 480 kts 152°
2026-05-08 01:46 19.24667 -66.07327 31109 ft 481 kts 152°
2026-05-08 01:47 19.18548 -66.04478 31110 ft 480 kts 153°
2026-05-08 01:47 19.12426 -66.01638 31103 ft 481 kts 153°
2026-05-08 01:48 19.03223 -65.97364 31099 ft 481 kts 153°
2026-05-08 01:48 18.97131 -65.94540 31101 ft 481 kts 153°
2026-05-08 01:49 18.91000 -65.91694 31095 ft 482 kts 152°
2026-05-08 01:49 18.84838 -65.88833 31086 ft 483 kts 152°
2026-05-08 01:50 18.78675 -65.85976 31082 ft 484 kts 152°
2026-05-08 01:50 18.72487 -65.83113 31085 ft 485 kts 152°
2026-05-08 01:51 18.66344 -65.80281 31090 ft 485 kts 152°
2026-05-08 01:51 18.60158 -65.77419 31093 ft 485 kts 152°
2026-05-08 01:52 18.53973 -65.74559 31092 ft 485 kts 152°
2026-05-08 01:52 18.47778 -65.71709 31096 ft 485 kts 152°
2026-05-08 01:53 18.41587 -65.68859 31099 ft 485 kts 152°
2026-05-08 01:53 18.35401 -65.66007 31097 ft 484 kts 152°
2026-05-08 01:54 18.29227 -65.63165 31090 ft 484 kts 152°
2026-05-08 01:54 18.23048 -65.60319 31096 ft 485 kts 152°
2026-05-08 01:55 18.17912 -65.57953 31094 ft 485 kts 152°
2026-05-08 01:55 18.11723 -65.55114 31095 ft 485 kts 152°
2026-05-08 01:56 18.05526 -65.52278 31091 ft 486 kts 152°
2026-05-08 01:56 17.99322 -65.49440 31094 ft 486 kts 152°
2026-05-08 01:57 17.93115 -65.46591 31095 ft 486 kts 152°
2026-05-08 01:57 17.86912 -65.43750 31097 ft 486 kts 152°
2026-05-08 01:58 17.80751 -65.40927 31103 ft 486 kts 152°
2026-05-08 01:58 17.74538 -65.38086 31090 ft 487 kts 152°
2026-05-08 01:59 17.68316 -65.35244 31079 ft 488 kts 152°
2026-05-08 01:59 17.62098 -65.32411 31082 ft 488 kts 152°
2026-05-08 02:00 17.55873 -65.29576 31092 ft 487 kts 152°
2026-05-08 02:00 17.49653 -65.26737 31081 ft 488 kts 152°
2026-05-08 02:01 17.43427 -65.23904 31074 ft 487 kts 153°
2026-05-08 02:01 17.37194 -65.21071 31072 ft 488 kts 153°
2026-05-08 02:02 17.30951 -65.18232 31071 ft 489 kts 153°
2026-05-08 02:02 17.24708 -65.15391 31075 ft 490 kts 153°
2026-05-08 02:03 17.18456 -65.12555 31080 ft 489 kts 153°
2026-05-08 02:03 17.12247 -65.09739 31087 ft 489 kts 153°
2026-05-08 02:04 17.06011 -65.06911 31086 ft 489 kts 153°
2026-05-08 02:04 16.99766 -65.04082 31087 ft 488 kts 153°
2026-05-08 02:05 16.93536 -65.01261 31081 ft 488 kts 153°
2026-05-08 02:05 16.87294 -64.98437 31079 ft 488 kts 153°
2026-05-08 02:06 16.81059 -64.95618 31081 ft 489 kts 153°
2026-05-08 02:06 16.74816 -64.92798 31085 ft 488 kts 154°
2026-05-08 02:07 16.68567 -64.89977 31083 ft 488 kts 154°
2026-05-08 02:07 16.62336 -64.87171 31083 ft 488 kts 154°
2026-05-08 02:08 16.56100 -64.84359 31081 ft 487 kts 154°
2026-05-08 02:08 16.49871 -64.81556 31078 ft 487 kts 154°
2026-05-08 02:09 16.43684 -64.78777 31073 ft 488 kts 154°
2026-05-08 02:09 16.37459 -64.75967 31069 ft 487 kts 154°
2026-05-08 02:10 16.31235 -64.73157 31073 ft 488 kts 154°
2026-05-08 02:10 16.24993 -64.70361 31074 ft 488 kts 154°
2026-05-08 02:11 16.18754 -64.67575 31075 ft 488 kts 154°
2026-05-08 02:11 16.12526 -64.64784 31070 ft 487 kts 154°
2026-05-08 02:12 16.06303 -64.61992 31085 ft 486 kts 154°
2026-05-08 02:12 16.00098 -64.59201 31088 ft 486 kts 154°
2026-05-08 02:13 15.93929 -64.56437 31084 ft 485 kts 154°
2026-05-08 02:13 15.87723 -64.53669 31083 ft 485 kts 154°
2026-05-08 02:14 15.81514 -64.50899 31080 ft 485 kts 154°
2026-05-08 02:14 15.75316 -64.48130 31078 ft 484 kts 154°
2026-05-08 02:15 15.69130 -64.45370 31076 ft 484 kts 154°
2026-05-08 02:15 15.62953 -64.42607 31074 ft 483 kts 154°
2026-05-08 02:16 15.56774 -64.39857 31075 ft 483 kts 154°
2026-05-08 02:16 15.50593 -64.37107 31072 ft 483 kts 154°
2026-05-08 02:17 15.44461 -64.34372 31074 ft 482 kts 155°
2026-05-08 02:17 15.38292 -64.31630 31081 ft 481 kts 156°
2026-05-08 02:18 15.32136 -64.28897 31077 ft 480 kts 156°
2026-05-08 02:18 15.26002 -64.26171 31076 ft 479 kts 155°
2026-05-08 02:19 15.19881 -64.23451 31068 ft 479 kts 155°
2026-05-08 02:19 15.13758 -64.20739 31066 ft 479 kts 155°
2026-05-08 02:20 15.07635 -64.18024 31069 ft 478 kts 156°
2026-05-08 02:20 15.01519 -64.15305 31061 ft 478 kts 156°
2026-05-08 02:21 14.95716 -64.11975 31062 ft 477 kts 148°
2026-05-08 02:21 14.90026 -64.08436 31054 ft 477 kts 148°
2026-05-08 02:22 14.84375 -64.04926 31064 ft 477 kts 148°
2026-05-08 02:22 14.78682 -64.01396 31067 ft 477 kts 149°
2026-05-08 02:23 14.72977 -63.97859 31065 ft 477 kts 150°
2026-05-08 02:23 14.67285 -63.94332 31068 ft 477 kts 149°
2026-05-08 02:24 14.61575 -63.90803 31192 ft 480 kts 149°
2026-05-08 02:24 14.58706 -63.89029 31412 ft 481 kts 150°
2026-05-08 02:24 14.55834 -63.87252 31684 ft 480 kts 150°
2026-05-08 02:25 14.52974 -63.85479 31934 ft 480 kts 150°
2026-05-08 02:25 14.50112 -63.83708 32185 ft 479 kts 150°
2026-05-08 02:25 14.47253 -63.81942 32448 ft 478 kts 150°
2026-05-08 02:25 14.44404 -63.80185 32719 ft 477 kts 150°
2026-05-08 02:26 14.41554 -63.78425 32960 ft 477 kts 150°
2026-05-08 02:26 14.38745 -63.76691 33046 ft 475 kts 150°
2026-05-08 02:26 14.33070 -63.73195 33047 ft 474 kts 151°
2026-05-08 02:27 14.27424 -63.69711 33047 ft 472 kts 151°
2026-05-08 02:27 14.21786 -63.66233 33046 ft 472 kts 150°
2026-05-08 02:28 14.16152 -63.62761 33045 ft 472 kts 151°
2026-05-08 02:28 14.10509 -63.59297 33050 ft 472 kts 151°
2026-05-08 02:29 14.04866 -63.55823 33047 ft 472 kts 151°
2026-05-08 02:29 13.99225 -63.52357 33062 ft 472 kts 151°
2026-05-08 02:30 13.93620 -63.48920 33054 ft 472 kts 151°
2026-05-08 02:30 13.87984 -63.45465 33067 ft 472 kts 151°
2026-05-08 02:31 13.82338 -63.42000 33066 ft 472 kts 152°
2026-05-08 02:31 13.76701 -63.38540 33074 ft 472 kts 152°
2026-05-08 02:32 13.71066 -63.35091 33056 ft 470 kts 152°
2026-05-08 02:32 13.65442 -63.31651 33066 ft 469 kts 152°
2026-05-08 02:33 13.59835 -63.28213 33059 ft 469 kts 152°
2026-05-08 02:33 13.54228 -63.24787 33059 ft 469 kts 152°
2026-05-08 02:34 13.48625 -63.21372 33053 ft 468 kts 152°
2026-05-08 02:34 13.43029 -63.17948 33056 ft 468 kts 152°
2026-05-08 02:35 13.37425 -63.14519 33048 ft 469 kts 152°
2026-05-08 02:35 13.31861 -63.11123 33050 ft 467 kts 153°
2026-05-08 02:36 13.26270 -63.07718 33050 ft 466 kts 153°
2026-05-08 02:36 13.20684 -63.04317 33045 ft 466 kts 153°
2026-05-08 02:37 13.15105 -63.00910 33053 ft 467 kts 153°
2026-05-08 02:37 13.09521 -62.97505 33049 ft 467 kts 153°
2026-05-08 02:38 13.03935 -62.94109 33052 ft 467 kts 153°
2026-05-08 02:38 12.98353 -62.90710 33051 ft 467 kts 153°
2026-05-08 02:39 12.92804 -62.87327 33056 ft 467 kts 153°
2026-05-08 02:39 12.87220 -62.83932 33056 ft 466 kts 153°
2026-05-08 02:40 12.81637 -62.80546 33052 ft 466 kts 154°
2026-05-08 02:40 12.76056 -62.77155 33056 ft 465 kts 154°
2026-05-08 02:41 12.71424 -62.74345 33059 ft 465 kts 154°
2026-05-08 02:41 12.65858 -62.70968 33049 ft 464 kts 154°
2026-05-08 02:42 12.60301 -62.67599 33051 ft 464 kts 154°
2026-05-08 02:42 12.54746 -62.64228 33051 ft 464 kts 154°
2026-05-08 02:43 12.49192 -62.60868 33046 ft 464 kts 154°
2026-05-08 02:43 12.43636 -62.57508 33045 ft 464 kts 154°
2026-05-08 02:44 12.38068 -62.54139 33039 ft 464 kts 154°
2026-05-08 02:44 12.32514 -62.50763 33039 ft 464 kts 155°
2026-05-08 02:45 12.27001 -62.47426 33047 ft 463 kts 155°
2026-05-08 02:45 12.21456 -62.44082 33051 ft 462 kts 155°
2026-05-08 02:46 12.15917 -62.40741 33050 ft 461 kts 155°
2026-05-08 02:46 12.10391 -62.37408 33043 ft 461 kts 155°
2026-05-08 02:47 12.04865 -62.34084 33045 ft 461 kts 155°
2026-05-08 02:47 11.99334 -62.30751 33027 ft 461 kts 155°
2026-05-08 02:48 11.93852 -62.27442 33040 ft 460 kts 155°
2026-05-08 02:48 11.88341 -62.24118 33043 ft 459 kts 155°
2026-05-08 02:49 11.82841 -62.20803 33047 ft 459 kts 156°
2026-05-08 02:49 11.77343 -62.17494 33047 ft 458 kts 155°
2026-05-08 02:50 11.71846 -62.14185 33046 ft 457 kts 155°
2026-05-08 02:50 11.66359 -62.10878 33037 ft 457 kts 155°
2026-05-08 02:51 11.60861 -62.07579 33005 ft 460 kts 155°
2026-05-08 02:51 11.55372 -62.04290 33004 ft 461 kts 155°
2026-05-08 02:52 11.49844 -62.00969 32516 ft 459 kts 155°
2026-05-08 02:52 11.47084 -61.99308 30878 ft 465 kts 155°
2026-05-08 02:52 11.44292 -61.97631 29509 ft 464 kts 155°
2026-05-08 02:53 11.41528 -61.95968 28201 ft 459 kts 154°
2026-05-08 02:53 11.38795 -61.94325 26960 ft 453 kts 154°
2026-05-08 02:53 11.36105 -61.92707 26000 ft 442 kts 153°
2026-05-08 02:53 11.33528 -61.91152 25638 ft 418 kts 154°
2026-05-08 02:54 11.31084 -61.89673 25178 ft 400 kts 154°
2026-05-08 02:54 11.28736 -61.88258 24727 ft 386 kts 154°
2026-05-08 02:54 11.26414 -61.86870 24303 ft 387 kts 154°
2026-05-08 02:54 11.24093 -61.85477 23883 ft 387 kts 153°
2026-05-08 02:55 11.21778 -61.84075 23436 ft 386 kts 153°
2026-05-08 02:55 11.17191 -61.81283 22598 ft 382 kts 153°
2026-05-08 02:55 11.14900 -61.79919 22198 ft 382 kts 158°
2026-05-08 02:56 11.12413 -61.79042 21575 ft 388 kts 171°
2026-05-08 02:56 11.09752 -61.78458 20809 ft 391 kts 171°
2026-05-08 02:56 11.07085 -61.77891 20072 ft 390 kts 171°
2026-05-08 02:56 11.04435 -61.77337 19356 ft 388 kts 171°
2026-05-08 02:57 11.01797 -61.76785 18647 ft 386 kts 171°
2026-05-08 02:57 10.99170 -61.76231 17905 ft 384 kts 170°
2026-05-08 02:57 10.96558 -61.75679 17112 ft 381 kts 169°
2026-05-08 02:57 10.93975 -61.75131 16350 ft 377 kts 168°
2026-05-08 02:58 10.91423 -61.74588 15602 ft 373 kts 167°
2026-05-08 02:58 10.88900 -61.74051 14868 ft 368 kts 167°
2026-05-08 02:58 10.86424 -61.73524 14150 ft 358 kts 166°
2026-05-08 02:58 10.84017 -61.73012 13401 ft 349 kts 166°
2026-05-08 02:59 10.81665 -61.72512 12621 ft 341 kts 166°
2026-05-08 02:59 10.79364 -61.72024 11866 ft 334 kts 166°
2026-05-08 02:59 10.77087 -61.71541 11130 ft 335 kts 166°
2026-05-08 02:59 10.74806 -61.71055 10402 ft 336 kts 167°
2026-05-08 03:00 10.72541 -61.70575 9676 ft 336 kts 167°
2026-05-08 03:00 10.70254 -61.70091 8892 ft 336 kts 167°
2026-05-08 03:00 10.67968 -61.69606 8129 ft 335 kts 167°
2026-05-08 03:00 10.65692 -61.69101 7382 ft 333 kts 162°
2026-05-08 03:01 10.63624 -61.68111 6651 ft 328 kts 142°
2026-05-08 03:01 10.62043 -61.66491 5892 ft 321 kts 122°
2026-05-08 03:01 10.60916 -61.64550 5145 ft 318 kts 118°
2026-05-08 03:01 10.59821 -61.62603 4391 ft 315 kts 117°
2026-05-08 03:02 10.59180 -61.60550 3988 ft 297 kts 89°
2026-05-08 03:02 10.59363 -61.58540 3863 ft 274 kts 83°
2026-05-08 03:02 10.59469 -61.56696 3857 ft 251 kts 88°
2026-05-08 03:02 10.59475 -61.54947 3658 ft 244 kts 89°
2026-05-08 03:03 10.59475 -61.53251 3374 ft 235 kts 88°
2026-05-08 03:03 10.59479 -61.51602 3083 ft 230 kts 88°
2026-05-08 03:03 10.59483 -61.50070 2846 ft 217 kts 88°
2026-05-08 03:03 10.59489 -61.48549 2554 ft 209 kts 88°
2026-05-08 03:04 10.59494 -61.47127 2273 ft 192 kts 88°
2026-05-08 03:04 10.59498 -61.45851 2041 ft 170 kts 88°
2026-05-08 03:04 10.59501 -61.44718 1842 ft 153 kts 87°
2026-05-08 03:04 10.59506 -61.43661 1639 ft 148 kts 87°
2026-05-08 03:05 10.59509 -61.42630 1440 ft 145 kts 88°
2026-05-08 03:05 10.59512 -61.41604 1261 ft 144 kts 88°
2026-05-08 03:05 10.59514 -61.40582 1056 ft 145 kts 88°
2026-05-08 03:05 10.59527 -61.39559 805 ft 145 kts 88°
2026-05-08 03:06 10.59536 -61.38534 639 ft 146 kts 90°
2026-05-08 03:06 10.59536 -61.37498 429 ft 147 kts 90°
2026-05-08 03:06 10.59537 -61.36475 281 ft 147 kts 90°
2026-05-08 03:06 10.59537 -61.35435 133 ft 146 kts 91°
2026-05-08 03:07 10.59538 -61.34409 52 ft 137 kts 91°
2026-05-08 03:07 10.59535 -61.33638 49 ft 69 kts 90°
2026-05-08 03:07 10.59538 -61.33368 50 ft 28 kts 89°
2026-05-08 03:07 10.59539 -61.33180 50 ft 26 kts 90°
2026-05-08 03:08 10.59542 -61.33000 49 ft 25 kts 81°
2026-05-08 03:08 10.59632 -61.32957 49 ft 13 kts 352°
2026-05-08 03:08 10.59707 -61.32994 48 ft 12 kts 291°
2026-05-08 03:08 10.59708 -61.33083 49 ft 13 kts 268°
2026-05-08 03:09 10.59708 -61.33178 49 ft 14 kts 270°
2026-05-08 03:09 10.59708 -61.33278 49 ft 15 kts 270°
2026-05-08 03:09 10.59707 -61.33382 49 ft 15 kts 270°
2026-05-08 03:09 10.59707 -61.33492 50 ft 16 kts 270°
2026-05-08 03:10 10.59707 -61.33606 50 ft 17 kts 270°
2026-05-08 03:10 10.59728 -61.33718 47 ft 16 kts 319°
2026-05-08 03:10 10.59827 -61.33766 49 ft 16 kts 298°
2026-05-08 03:10 10.59834 -61.33877 49 ft 16 kts 270°
2026-05-08 03:11 10.59850 -61.33980 47 ft 14 kts 296°
2026-05-08 03:11 10.59934 -61.34001 49 ft 13 kts
2026-05-08 03:11 10.59966 -61.33997 49 ft 0 kts